sat.trackr.live / text

‹ back to catalog

ONEWEB-0416

NORAD 51625 · 2022-012D

PAYLOAD ACTIVE UNKNOWN

§ Identity

Operator
Country
UK
Launch date
2022-02-10
Launch site
FRGUI
Launch vehicle
Mass (kg)
RCS (m²)

Purposes: comms

External: N2YO · Heavens-Above · Gunter

§ Orbital elements

Epoch: 2026-09-20T02:05:10.395168Z

Period
109.89 min
Inclination
87.8916°
Eccentricity
0.0001445
Mean motion
13.10370661 rev/d
Perigee alt
1,220.6 km
Apogee alt
1,222.8 km
Semi-major
7,599.9 km
B*
1.2645e-3
RAAN
17.3854°
Arg perigee
112.7976°
Mean anomaly
247.3304°
Rev number
22,175

§ Raw data

ONEWEB-04161 51625U 22012D   26263.08692587  .00000454  00000+0  12645-2 0  99922 51625  87.8916  17.3854 0001445 112.7976 247.3304 13.10370661221753

JSON: /api/v1/satellites/51625 · /tle

For live sub-satellite position, see the globe view (requires WebGL).

§ Visibility from observer

Set your observer location to see the next 7 days of passes ≥ 10°. The values pass through the URL so the page stays shareable.

No JS? Fill the form by hand. The geolocation button needs JavaScript.